User: anonymous   Login
Location: The Top Of The Sky Mini Observatory
(41.4300°N, 81.2300°W)
Time: 06:32:16
(UTC-05:00)
Language:

Iridium 86 - Orbit

View from above orbital plane
View from above orbital plane
View from above satellite
View from above satellite

Ground track
Ground track

The orbit data is extracted from the following two-line orbital elements,

1 25528U 98066B   18018.62807625 +.00000129 +00000-0 +38956-4 0  9992
2 25528 086.3947 259.6941 0002148 059.5145 300.6262 14.34219379010015
Epoch (UTC): 18 January 2018 15:04:25
Eccentricity: 0.0002148
inclination: 86.3947°
perigee height: 776 km
apogee height: 779 km
right ascension of ascending node: 259.6941°
argument of perigee: 59.5145°
revolutions per day: 14.34219379
mean anomaly at epoch: 300.6262°
orbit number at epoch: 1001

The dashed part of the orbit path shows where the satellite is in the earth's shadow,  

DLR